�N����,����,�~����,�C��,���x,�C��,����,���ϕ���,�ő�u�ԕ���,�ő厞����,���˗�,�I�_���x,�n�����x,�ő啗���N��,DTYPE
"17/06/19","00:10",0.0,19.7,76.8,1004.3,333.1,1.7,2.4,332.3,0.00,15.6,21.6,"00:09:36",1
"17/06/19","00:20",0.0,19.5,77.1,1004.3,331.4,2.5,3.9,336.2,0.00,15.4,21.5,"00:14:16",1
"17/06/19","00:30",0.0,19.5,76.9,1004.1,326.3,2.8,4.1,340.0,0.00,15.4,21.4,"00:23:52",1
"17/06/19","00:40",0.0,19.3,77.5,1004.5,332.3,2.3,3.5,331.4,0.00,15.3,21.3,"00:32:08",1
"17/06/19","00:50",0.0,19.1,78.3,1004.3,334.1,2.1,3.2,329.1,0.00,15.3,21.3,"00:40:16",1
"17/06/19","01:00",0.0,18.9,78.4,1004.3,334.9,1.6,3.2,339.6,0.00,15.1,21.1,"00:59:20",1
"17/06/19","01:10",0.0,18.9,79.1,1004.3,327.5,1.3,2.1,346.2,0.00,15.2,21.1,"01:08:16",1
"17/06/19","01:20",0.0,19.1,79.1,1003.8,342.7,1.3,2.0,325.8,0.00,15.4,21.1,"01:14:24",1
"17/06/19","01:30",0.0,19.2,78.5,1004.5,342.0,1.3,3.3,344.0,0.00,15.4,21.0,"01:22:48",1
"17/06/19","01:40",0.0,19.1,78.4,1004.3,339.0,1.3,2.0,339.6,0.00,15.3,21.0,"01:32:08",1
"17/06/19","01:50",0.0,18.7,79.2,1004.5,316.7,1.8,3.2,336.5,0.00,15.1,20.8,"01:45:12",1
"17/06/19","02:00",0.0,18.3,79.6,1004.5,285.8,1.0,2.1,330.4,0.00,14.8,20.6,"01:50:08",1
"17/06/19","02:10",0.0,18.1,80.5,1004.5,274.6,1.3,2.1,241.3,0.00,14.7,20.7,"02:06:16",1
"17/06/19","02:20",0.0,18.0,81.5,1004.5,337.7,1.3,2.2,342.7,0.00,14.8,20.5,"02:11:12",1
"17/06/19","02:30",0.0,17.7,82.6,1004.5,332.4,1.2,1.8,314.6,0.00,14.7,20.5,"02:26:08",1
"17/06/19","02:40",0.0,17.2,84.3,1004.8,315.8,1.3,2.5,320.8,0.00,14.6,20.4,"02:38:48",1
"17/06/19","02:50",0.0,17.3,85.0,1004.5,331.5,1.7,2.4,322.2,0.00,14.8,20.2,"02:40:40",1
"17/06/19","03:00",0.0,17.5,85.1,1005.0,314.7,1.8,2.9,333.5,0.00,15.0,20.4,"02:54:48",1
"17/06/19","03:10",0.0,17.6,84.7,1004.8,319.8,2.0,3.3,327.5,0.00,15.0,20.2,"03:03:20",1
"17/06/19","03:20",0.0,17.8,83.3,1005.0,335.1,2.7,4.0,333.9,0.00,15.0,20.2,"03:11:12",1
"17/06/19","03:30",0.0,17.8,82.5,1005.0,337.1,2.3,3.4,339.5,0.00,14.8,20.3,"03:29:36",1
"17/06/19","03:40",0.0,17.7,82.4,1004.8,335.3,2.5,4.4,338.5,0.00,14.7,20.1,"03:30:40",1
"17/06/19","03:50",0.0,17.6,82.8,1005.0,335.0,2.0,3.6,329.9,0.00,14.7,20.2,"03:47:28",1
"17/06/19","04:00",0.0,17.5,83.4,1004.8,335.1,2.2,4.1,335.3,0.00,14.7,20.2,"03:54:24",1
"17/06/19","04:10",0.0,17.4,83.0,1005.2,307.5,1.3,2.9,332.7,0.00,14.5,20.1,"04:05:20",1
"17/06/19","04:20",0.0,17.0,83.6,1004.8,292.9,0.3,1.8,325.2,0.00,14.2,20.0,"04:17:36",1
"17/06/19","04:30",0.0,16.9,84.6,1005.0,337.2,1.3,2.7,340.1,0.00,14.3,19.8,"04:26:40",1
"17/06/19","04:40",0.0,16.8,85.0,1005.2,338.7,1.0,1.7,341.9,0.00,14.3,19.9,"04:30:16",1
"17/06/19","04:50",0.0,16.7,86.0,1005.0,348.4,1.3,2.2,316.8,0.00,14.4,19.9,"04:42:24",1
"17/06/19","05:00",0.0,16.7,85.6,1005.0,325.1,1.0,1.6,6.9,0.00,14.3,19.9,"04:51:12",1
"17/06/19","05:10",0.0,16.5,86.0,1005.0,308.1,1.0,1.8,315.9,0.00,14.2,19.7,"05:07:04",1
"17/06/19","05:20",0.0,16.4,86.9,1004.8,315.2,1.1,2.9,336.7,0.00,14.3,19.6,"05:18:56",1
"17/06/19","05:30",0.0,16.7,86.7,1005.2,328.3,2.2,3.6,327.6,0.00,14.5,19.6,"05:22:56",1
"17/06/19","05:40",0.0,17.0,85.6,1005.2,351.5,1.5,3.1,339.7,0.00,14.6,19.6,"05:32:48",1
"17/06/19","05:50",0.0,16.9,85.6,1005.5,322.5,0.6,1.4,50.7,0.00,14.5,19.7,"05:40:56",1
"17/06/19","06:00",0.0,16.9,85.7,1005.5,322.0,0.7,1.7,343.7,0.01,14.5,19.5,"05:59:44",1
"17/06/19","06:10",0.0,17.4,85.7,1005.2,344.8,0.7,1.3,347.3,0.02,15.0,19.7,"06:05:20",1
"17/06/19","06:20",0.0,18.1,83.8,1005.5,329.7,0.8,1.4,327.7,0.03,15.4,19.3,"06:19:44",1
"17/06/19","06:30",0.0,19.0,82.7,1005.7,307.0,0.6,1.1,310.6,0.05,16.0,19.6,"06:25:36",1
"17/06/19","06:40",0.0,19.9,79.4,1005.5,335.6,1.2,3.1,330.3,0.06,16.3,19.8,"06:39:04",1
"17/06/19","06:50",0.0,20.4,75.7,1005.7,348.6,1.0,2.8,333.7,0.09,16.0,19.8,"06:49:12",1
"17/06/19","07:00",0.0,20.9,73.1,1005.7,349.9,1.0,2.2,345.1,0.11,15.9,20.0,"06:53:04",1
"17/06/19","07:10",0.0,21.7,71.7,1005.7,341.6,0.6,2.0,248.5,0.13,16.4,20.3,"07:09:36",1
"17/06/19","07:20",0.0,21.7,70.8,1005.5,333.6,1.2,2.5,339.4,0.15,16.2,20.3,"07:16:24",1
"17/06/19","07:30",0.0,22.3,69.2,1005.5,334.2,1.0,2.0,257.6,0.18,16.4,20.4,"07:29:04",1
"17/06/19","07:40",0.0,22.9,68.9,1006.0,192.7,0.8,1.9,232.1,0.20,16.9,20.8,"07:33:20",1
"17/06/19","07:50",0.0,23.5,67.4,1005.5,142.4,0.6,1.2,95.5,0.23,17.2,20.9,"07:48:56",1
"17/06/19","08:00",0.0,23.5,64.9,1005.2,43.5,1.0,2.0,100.7,0.25,16.6,20.9,"07:54:00",1
"17/06/19","08:10",0.0,23.8,64.9,1005.2,344.8,0.7,2.0,356.6,0.28,16.8,21.3,"08:02:48",1
"17/06/19","08:20",0.0,24.2,62.3,1005.0,142.9,0.6,1.8,114.6,0.30,16.6,21.5,"08:13:44",1
"17/06/19","08:30",0.0,24.7,61.3,1004.8,354.6,0.7,1.8,307.8,0.32,16.8,22.0,"08:21:28",1
"17/06/19","08:40",0.0,24.6,60.7,1005.0,196.8,1.2,2.5,220.5,0.35,16.5,22.2,"08:30:16",1
"17/06/19","08:50",0.0,25.8,58.1,1004.3,50.6,0.6,1.6,18.9,0.37,17.0,22.6,"08:43:20",1
"17/06/19","09:00",0.0,25.6,58.8,1004.3,207.5,1.0,2.2,191.3,0.39,17.0,22.7,"08:59:28",1
"17/06/19","09:10",0.0,26.2,60.1,1004.3,168.1,0.8,2.5,218.3,0.41,17.9,22.8,"09:02:32",1
"17/06/19","09:20",0.0,26.8,56.1,1004.3,171.8,0.8,3.3,215.1,0.43,17.4,23.0,"09:11:12",1
"17/06/19","09:30",0.0,27.1,55.5,1004.5,129.8,0.7,1.8,122.2,0.45,17.5,23.4,"09:23:12",1
"17/06/19","09:40",0.0,27.5,54.0,1004.8,153.2,1.3,3.2,187.6,0.47,17.4,24.0,"09:31:44",1
"17/06/19","09:50",0.0,28.1,50.8,1005.2,152.7,1.2,2.4,189.6,0.49,17.0,24.1,"09:41:04",1
"17/06/19","10:00",0.0,28.1,49.9,1005.5,207.8,1.6,3.5,224.1,0.50,16.7,24.5,"09:52:24",1
"17/06/19","10:10",0.0,28.3,47.6,1005.0,218.3,1.2,3.1,228.6,0.52,16.2,24.8,"10:02:24",1
"17/06/19","10:20",0.0,28.5,42.0,1005.0,225.1,1.5,4.0,229.1,0.53,14.4,25.1,"10:16:40",1
"17/06/19","10:30",0.0,29.2,43.4,1005.0,241.1,1.2,3.4,219.5,0.54,15.5,25.4,"10:20:56",1
"17/06/19","10:40",0.0,29.3,42.4,1005.0,305.4,1.7,4.3,347.8,0.55,15.3,25.7,"10:32:00",1
"17/06/19","10:50",0.0,29.4,40.9,1004.5,241.0,1.5,4.4,222.4,0.56,14.8,26.2,"10:49:04",1
"17/06/19","11:00",0.0,29.9,40.1,1004.5,263.8,1.5,3.9,346.2,0.57,14.9,26.2,"10:56:48",1
"17/06/19","11:10",0.0,30.0,38.8,1004.3,252.8,1.5,4.1,220.6,0.58,14.5,26.4,"11:03:36",1
"17/06/19","11:20",0.0,30.3,38.1,1004.1,232.7,1.6,3.6,226.3,0.58,14.5,26.8,"11:11:52",1
"17/06/19","11:30",0.0,30.4,38.1,1003.6,224.1,2.0,5.1,218.5,0.59,14.6,27.1,"11:26:16",1
"17/06/19","11:40",0.0,30.9,35.8,1003.6,256.0,1.7,4.5,249.6,0.59,14.1,27.2,"11:30:24",1
"17/06/19","11:50",0.0,31.0,35.0,1003.6,304.9,1.8,5.0,343.9,0.60,13.8,27.3,"11:42:16",1
"17/06/19","12:00",0.0,30.9,34.9,1003.8,239.2,1.8,4.0,318.8,0.60,13.7,27.7,"11:54:24",1
"17/06/19","12:10",0.0,31.2,32.9,1003.6,238.9,2.1,4.2,232.5,0.60,13.0,27.8,"12:09:28",1
"17/06/19","12:20",0.0,31.4,32.8,1003.4,246.5,1.8,4.1,226.3,0.60,13.1,27.8,"12:14:32",1
"17/06/19","12:30",0.0,31.2,32.5,1003.4,239.3,2.2,5.1,230.7,0.60,12.8,28.1,"12:27:28",1
"17/06/19","12:40",0.0,32.0,31.2,1003.4,239.0,1.3,3.3,225.9,0.60,12.9,28.2,"12:35:04",1
"17/06/19","12:50",0.0,31.7,32.8,1003.6,267.8,1.8,4.4,280.0,0.59,13.4,28.3,"12:45:28",1
"17/06/19","13:00",0.0,31.8,32.2,1003.4,254.0,2.0,3.9,257.5,0.59,13.2,28.3,"12:55:44",1
"17/06/19","13:10",0.0,32.4,29.7,1003.1,250.0,1.6,3.4,224.0,0.59,12.5,28.1,"13:05:52",1
"17/06/19","13:20",0.0,32.7,29.4,1003.1,256.2,1.8,5.0,234.0,0.58,12.6,28.1,"13:14:08",1
"17/06/19","13:30",0.0,32.2,29.3,1003.1,233.1,2.7,6.2,223.7,0.57,12.1,27.8,"13:29:28",1
"17/06/19","13:40",0.0,32.3,29.4,1002.9,235.4,2.6,5.2,227.3,0.57,12.3,27.5,"13:37:12",1
"17/06/19","13:50",0.0,32.5,28.4,1002.9,246.1,2.0,4.3,235.3,0.56,11.9,27.3,"13:49:12",1
"17/06/19","14:00",0.0,32.5,30.2,1002.9,228.1,2.1,5.8,227.2,0.55,12.8,27.4,"13:56:56",1
"17/06/19","14:10",0.0,33.1,29.8,1002.6,244.4,1.6,5.8,225.6,0.54,13.2,27.3,"14:01:20",1
"17/06/19","14:20",0.0,33.2,27.9,1002.6,247.6,1.8,3.7,228.0,0.53,12.2,27.5,"14:19:28",1
"17/06/19","14:30",0.0,32.9,27.6,1002.4,253.9,2.3,6.0,223.9,0.51,11.8,27.6,"14:23:44",1
"17/06/19","14:40",0.0,33.5,29.5,1002.4,274.6,1.8,5.1,220.6,0.50,13.3,27.7,"14:30:24",1
"17/06/19","14:50",0.0,33.3,29.3,1002.2,272.6,1.5,4.1,225.9,0.48,13.1,27.8,"14:48:56",1
"17/06/19","15:00",0.0,33.4,26.9,1002.4,268.8,1.7,6.7,347.7,0.47,11.8,28.0,"14:54:24",1
"17/06/19","15:10",0.0,33.3,26.6,1002.4,267.1,1.6,3.3,312.5,0.45,11.6,27.9,"15:04:48",1
"17/06/19","15:20",0.0,33.5,27.3,1002.2,240.9,2.0,6.0,226.1,0.43,12.2,28.2,"15:14:24",1
"17/06/19","15:30",0.0,33.8,26.2,1001.9,333.0,1.7,4.1,331.0,0.42,11.8,27.9,"15:20:56",1
"17/06/19","15:40",0.0,33.4,27.3,1001.9,323.9,2.1,4.3,340.4,0.40,12.1,28.0,"15:36:40",1
"17/06/19","15:50",0.0,33.4,28.7,1002.2,328.9,2.3,5.5,357.7,0.38,12.8,28.0,"15:43:44",1
"17/06/19","16:00",0.0,33.4,28.7,1001.9,341.9,2.3,5.0,336.1,0.35,12.8,28.0,"15:56:32",1
"17/06/19","16:10",0.0,33.3,28.7,1001.9,342.0,2.8,5.1,328.1,0.33,12.7,28.1,"16:02:24",1
"17/06/19","16:20",0.0,33.0,31.9,1001.9,340.2,2.5,5.2,338.0,0.31,14.1,28.1,"16:14:48",1
"17/06/19","16:30",0.0,32.7,32.1,1001.7,348.9,2.8,5.2,344.8,0.28,13.9,27.9,"16:20:40",1
"17/06/19","16:40",0.0,32.4,32.4,1001.9,353.4,2.6,4.8,11.5,0.26,13.8,27.9,"16:36:24",1
"17/06/19","16:50",0.0,32.0,32.9,1001.7,344.1,3.0,5.2,326.4,0.24,13.7,27.9,"16:43:44",1
"17/06/19","17:00",0.0,31.8,32.1,1001.5,353.2,2.5,6.3,340.5,0.18,13.2,27.7,"16:52:48",1
"17/06/19","17:10",0.0,31.6,33.1,1001.5,353.0,2.3,5.1,352.1,0.04,13.5,27.8,"17:04:48",1
"17/06/19","17:20",0.0,31.3,31.5,1001.7,359.2,2.3,5.8,342.8,0.03,12.4,27.4,"17:16:08",1
"17/06/19","17:30",0.0,31.1,32.1,1001.2,352.0,2.3,4.7,323.4,0.02,12.6,27.4,"17:21:04",1
"17/06/19","17:40",0.0,31.0,30.5,1001.5,354.3,2.0,4.1,30.3,0.02,11.7,27.3,"17:39:36",1
"17/06/19","17:50",0.0,30.7,30.0,1001.2,11.8,2.0,4.3,20.4,0.02,11.2,27.4,"17:45:28",1
"17/06/19","18:00",0.0,30.4,30.3,1001.5,358.4,1.8,4.0,0.5,0.02,11.1,27.2,"17:51:04",1
"17/06/19","18:10",0.0,29.9,31.0,1001.2,351.6,2.3,5.5,323.7,0.01,11.0,27.2,"18:01:28",1
"17/06/19","18:20",0.0,29.5,30.1,1001.2,347.4,2.0,4.4,357.0,0.01,10.2,26.8,"18:14:08",1
"17/06/19","18:30",0.0,29.1,31.1,1001.0,341.4,2.5,5.9,340.1,0.01,10.4,26.7,"18:24:32",1
"17/06/19","18:40",0.0,28.7,31.2,1001.2,347.0,2.2,6.2,353.4,0.02,10.1,26.7,"18:31:28",1
"17/06/19","18:50",0.0,28.1,31.6,1001.0,348.0,2.1,4.4,337.2,0.01,9.7,26.3,"18:40:56",1
"17/06/19","19:00",0.0,27.6,33.4,1001.7,345.1,2.2,4.4,347.7,0.00,10.1,26.2,"18:53:04",1
"17/06/19","19:10",0.0,27.1,35.3,1001.9,343.1,2.0,4.0,355.2,0.00,10.5,26.2,"19:02:40",1
"17/06/19","19:20",0.0,26.7,35.9,1001.9,343.0,2.1,4.4,314.0,0.00,10.4,26.0,"19:14:32",1
"17/06/19","19:30",0.0,26.4,36.8,1002.4,332.8,2.5,4.9,302.2,0.00,10.5,25.8,"19:25:28",1
"17/06/19","19:40",0.0,26.1,38.5,1002.4,340.6,2.0,4.0,5.9,0.00,10.9,25.7,"19:38:00",1
"17/06/19","19:50",0.0,25.8,39.2,1002.6,328.9,1.8,3.9,349.3,0.00,10.9,25.5,"19:43:04",1
"17/06/19","20:00",0.0,25.2,40.5,1002.6,280.5,1.0,2.4,311.6,0.00,10.9,25.4,"19:50:08",1
"17/06/19","20:10",0.0,24.8,43.1,1002.9,332.1,1.6,2.8,325.4,0.00,11.5,25.0,"20:05:28",1
"17/06/19","20:20",0.0,24.5,42.6,1002.9,319.2,1.7,2.9,319.7,0.00,11.0,24.9,"20:19:20",1
"17/06/19","20:30",0.0,24.2,43.9,1003.1,290.8,1.2,2.5,337.8,0.00,11.2,24.8,"20:28:40",1
"17/06/19","20:40",0.0,23.5,46.7,1003.8,281.1,1.1,2.0,308.7,0.00,11.5,24.6,"20:35:36",1
"17/06/19","20:50",0.0,22.8,48.1,1003.6,294.9,1.2,2.4,314.3,0.00,11.3,24.3,"20:48:08",1
"17/06/19","21:00",0.0,22.4,48.9,1004.1,290.4,1.2,2.1,315.8,0.00,11.2,24.3,"20:52:24",1
"17/06/19","21:10",0.0,22.0,50.3,1004.1,274.3,1.2,2.8,261.8,0.00,11.2,24.2,"21:04:48",1
"17/06/19","21:20",0.0,22.0,51.3,1004.5,323.5,1.8,3.6,326.3,0.00,11.5,24.1,"21:18:08",1
"17/06/19","21:30",0.0,22.1,50.5,1005.0,322.1,2.1,3.4,317.0,0.00,11.4,24.0,"21:24:24",1
"17/06/19","21:40",0.0,21.9,51.0,1005.0,329.7,1.7,2.8,342.7,0.00,11.4,23.6,"21:35:36",1
"17/06/19","21:50",0.0,22.0,50.8,1005.0,330.0,1.7,2.6,332.2,0.00,11.4,23.6,"21:40:08",1
"17/06/19","22:00",0.0,21.9,51.3,1005.2,319.3,1.6,2.8,334.1,0.00,11.4,23.6,"21:58:40",1
"17/06/19","22:10",0.0,21.7,53.4,1005.0,335.7,1.5,2.4,326.0,0.00,11.9,23.4,"22:02:24",1
"17/06/19","22:20",0.0,21.2,53.9,1004.8,288.1,1.2,1.7,305.4,0.00,11.5,23.2,"22:19:04",1
"17/06/19","22:30",0.0,20.8,55.6,1005.0,300.7,1.0,2.1,325.0,0.00,11.6,23.1,"22:21:12",1
"17/06/19","22:40",0.0,20.7,55.1,1005.2,319.3,0.8,1.6,310.4,0.00,11.4,23.1,"22:36:08",1
"17/06/19","22:50",0.0,20.3,56.3,1004.8,304.5,0.8,1.2,306.8,0.00,11.4,22.9,"22:42:24",1
"17/06/19","23:00",0.0,19.7,58.9,1005.0,318.4,0.7,1.3,328.4,0.00,11.5,22.9,"22:53:44",1
"17/06/19","23:10",0.0,19.4,63.6,1005.0,319.1,0.8,2.0,319.4,0.00,12.4,22.5,"23:08:56",1
"17/06/19","23:20",0.0,19.2,63.7,1004.5,322.0,0.7,1.7,325.7,0.00,12.2,22.5,"23:12:00",1
"17/06/19","23:30",0.0,19.1,63.4,1005.2,289.9,0.8,1.7,306.4,0.00,12.0,22.4,"23:28:56",1
"17/06/19","23:40",0.0,19.3,63.8,1005.2,323.6,1.2,2.0,322.5,0.00,12.3,22.5,"23:35:20",1
"17/06/19","23:50",0.0,19.3,63.6,1005.2,330.9,1.5,2.4,328.3,0.00,12.3,22.3,"23:49:28",1
"17/06/19","24:00",0.0,19.4,64.4,1005.5,335.4,1.5,2.5,340.7,0.00,12.6,22.2,"23:54:08",1
